Regional Weather Roundup
Issued by NWS Cleveland, OH

Home | Current Version | Previous Version | Text Only | Print | Product List | Glossary On
Versions: 1 2 3 4 5 6 7 8 9 10 11 12 13 14 15 16 17 18 19 20 21 22 23 24 25 26 27 28 29 30 31 32 33 34 35 36 37 38 39 40 41 42 43 44 45 46 47 48 49 50
000
ASUS41 KCLE 220210
RWRCLE
OHIO REGIONAL WEATHER ROUNDUP
NATIONAL WEATHER SERVICE WILMINGTON, OH
1000 PM EDT TUE OCT 21 2014

NOTE: "FAIR" INDICATES FEW OR NO CLOUDS BELOW 12,000 FEET WITH NO
SIGNIFICANT WEATHER AND/OR OBSTRUCTIONS TO VISIBILITY.

OHZ001>008-015>018-024>027-034-035-043-044-220300-
   NORTHWEST OHIO

CITY           SKY/WX    TMP DP  RH WIND       PRES   REMARKS
DEFIANCE       CLOUDY    46  36  68 N6        30.21R
FINDLAY        CLOUDY    46  38  73 N13       30.18R
TOLEDO EXPRESS CLOUDY    44  37  76 N8        30.20R
TOLEDO METCALF CLOUDY    46  36  68 N8G20     30.20R
LIMA           CLOUDY    46  37  71 N10       30.19R
$$

OHZ009>014-019>023-028>033-038-089-220300-
   NORTHEAST OHIO

CITY           SKY/WX    TMP DP  RH WIND       PRES   REMARKS
CLE-HOPKINS    LGT RAIN  47  44  90 N15       30.13R
CLE-LAKEFRONT  LGT RAIN  49  45  86 N18G26    30.10R
CUY CO. ARPT   LGT RAIN  48  48 100 NE15      30.10R FOG
LORAIN-ELYRIA  LGT RAIN  47  43  86 NE15G22   30.12R
ASHTABULA      CLOUDY    47  45  93 MISG      30.08R
AKRON-CANTON   LGT RAIN  47  44  90 N13G18    30.06R FOG
WOOSTER        CLOUDY    47  43  86 NW10      30.10R
MANSFIELD      CLOUDY    43  42  97 NW13      30.12R FOG
YOUNGSTOWN     CLOUDY    47  45  93 N10       30.04R
$$

OHZ042-051>053-060>062-070>072-077>081-220300-
  SOUTHWEST OHIO

CITY           SKY/WX    TMP DP  RH WIND       PRES   REMARKS
CINC-COVINGTON PTCLDY    48  40  73 N7        30.15R
CINC-LUNKEN    MOCLDY    45  43  93 NE5       30.17R
HAMILTON       CLOUDY    50  42  74 N8        30.18R
DAYTON         CLOUDY    47  38  71 N13       30.19R
WRIGHT-PAT AFB CLOUDY    47  37  69 N12       30.18R
DAYTON GENERAL CLOUDY    47  39  74 N12       30.17R
WILMINGTON     CLOUDY    46  37  71 N10       30.15R
$$

OHZ036-037-039>041-045>050-054>059-063>069-073>076-082>088-220300-
  CENTRAL AND SOUTHEAST OHIO

CITY           SKY/WX    TMP DP  RH WIND       PRES   REMARKS
COLUMBUS       CLOUDY    46  39  76 N9        30.14R
OSU AIRPORT    CLOUDY    45  39  79 NW8       30.15R
BOLTON FIELD   CLOUDY    45  41  86 NW9       30.16R
RICKENBACK AFB CLOUDY    46  40  80 N8        30.15R
NEWARK         CLOUDY    47  40  76 NW9       30.13R
MARION         CLOUDY    43  41  93 N12       30.16R FOG
LANCASTER      CLOUDY    46  41  82 NW7       30.14R
ZANESVILLE     CLOUDY    46  40  79 NW10      30.10R
NEW PHILLY     CLOUDY    47  44  90 NW8       30.08R
$$



USA.gov is the U.S. government's official web portal to all federal, state and local government web resources and services.